Regional Weather Roundup
Issued by NWS

Home | Current Version | Previous Version | Graphics & Text | Print | Product List | Glossary Off
Versions: 1 2 3 4 5 6 7 8 9 10 11 12 13 14 15 16 17 18 19 20 21 22 23 24 25 26 27 28 29 30 31 32 33 34 35 36 37 38 39 40 41 42 43 44 45 46 47 48 49 50

000
ASUS43 KDTX 292101
RWRMI
MICHIGAN HOURLY REGIONAL WEATHER ROUNDUP
NATIONAL WEATHER SERVICE DETROIT/PONTIAC MI
500 PM EDT SUN MAR 29 2015

NOTE: "FAIR" INDICATES FEW OR NO CLOUDS BELOW 12,000 FEET WITH NO
SIGNIFICANT WEATHER AND/OR OBSTRUCTION TO VISIBILITY.

MIZ047>049-052>055-059>063-066>070-074>076-081>083-292200-
SOUTHEAST LOWER MICHIGAN

CITY           SKY/WX    TMP DP  RH WIND       PRES   REMARKS
ADRIAN         CLOUDY    41  19  41 SW25G37   29.88F
ALMA           LGT SNOW  33  32  94 SW13G26   29.82S WCI  24
ANN ARBOR      CLOUDY    42  16  34 S20G31    29.86F
BAD AXE        CLOUDY    39  20  47 S16G25    29.78F WCI  30
CARO           CLOUDY    41  16  35 S21G30    29.78F
DETROIT CITY   CLOUDY    44  20  38 S24G35    29.89F
DETROIT        CLOUDY    45  18  34 S20G32    29.89F
FLINT          LGT RAIN  40  21  46 SW29G39   29.84F WCI  29
GROSSE ILE     CLOUDY    39  27  60 S21       29.90F WCI  29
HILLSDALE      MIX PCPN  39  23  53 SW16G28   29.88R WCI  30
HOWELL         LGT SNOW  38  22  50 S23G30    29.85R WCI  28

CITY           SKY/WX    TMP DP  RH WIND       PRES   REMARKS
JACKSON        LGT RAIN  38  24  57 S25G33    29.87S WCI  27
LAMBERTVILLE   CLOUDY    45  16  31 S16G25    29.90F
LANSING        LGT SNOW  37  25  61 SW25G39   29.86R WCI  25
LAPEER         CLOUDY    41  13  31 SW18G28   29.83S
MASON          LGT SNOW  38  22  51 SW12G30   29.87R WCI  31
MONROE         CLOUDY    45  16  31 S20G31    29.89F
MT. CLEMENS    CLOUDY    39  23  52 S26       29.85F WCI  28
PONTIAC        CLOUDY    41  14  33 S17G32    29.84F
PORT HOPE        N/A     39  21  48 S14G28    29.77F WCI  31
PORT HURON     CLOUDY    37  21  52 S18G31    29.88F WCI  27
TRI CITIES     LGT RAIN  39  26  59 SW35G51   29.81R WCI  26
TROY           CLOUDY    44  16  33 S13G24    29.87F
SAGINAW HB     FLURRIES  39  23  52 S29G43    29.81R WCI  28
$$
MIZ043>046-050>051-056>058-064>065-071>073-077>080-292200-
SOUTHWEST LOWER MICHIGAN

CITY           SKY/WX    TMP DP  RH WIND       PRES   REMARKS
BATTLE CREEK   LGT SNOW  36  26  67 S28G37    29.84F WCI  23
BENTON HARBOR  CLOUDY    37  26  64 S17G29    29.85R WCI  27
BIG RAPIDS     CLOUDY    32  30  92 SW17G25   29.73F FOG     WCI  21
COLDWATER      FLURRIES  37  24  57 S12G21    29.88F WCI  30
FREMONT        MIX PCPN  32  31  94 SW23G36   29.76F WCI  19
HOLLAND        CLOUDY    35  30  82 S18G25    29.81F WCI  24
GRAND RAPIDS   LGT SNOW  34  29  82 S21       29.83F WCI  22
IONIA          LGT SNOW  34  30  84 SW17G26   29.83F WCI  24
KALAMAZOO      LGT RAIN  36  27  69 S16G26    29.84F WCI  26
LUDINGTON      MIX PCPN  36  32  87 S21G32    29.70F WCI  24
MARSHALL       LGT SNOW  35  26  69 S15G29    29.87S WCI  25
MOUNT PLEASANT LGT SNOW  34  30  87 S16G29    29.77F WCI  23
MUSKEGON       LGT SNOW  34  30  85 S23G30    29.79F FOG     WCI  22
SOUTH HAVEN    CLOUDY    37  28  70 S12G20    29.83F WCI  29
$$
MIZ016>042-292200-
NORTHERN LOWER MICHIGAN

CITY           SKY/WX    TMP DP  RH WIND       PRES   REMARKS
ALPENA         CLOUDY    37  21  52 SW20G28   29.68F HAZE    WCI  27
BEAVER ISLAND  LGT SNOW  32  30  94 S17G31    29.58F WCI  21
BELLAIRE       LGT SNOW  33  30  89 S13G21    29.65F WCI  24
CADILLAC       LGT SNOW  32  29  90 S18G37    29.66F WCI  20
CHARLEVOIX     LGT SNOW  33  31  93 S14G26    29.65F WCI  23
FRANKFORT      MIX PCPN  36  30  79 S23G36    29.64F WCI  24
GAYLORD        SNOW      30  29  96 S17G28    29.62F VSB 1/2 WCI  18
GRAYLING       LGT SNOW  31  29  91 S9G23     29.67F VSB 3/4 WCI  23
HARBOR SPRINGS LGT SNOW  32  31  94 SW13G20   29.63F WCI  22
HOUGHTON LAKE  LGT SNOW  32  28  85 S21G31    29.69F VSB 3/4 WCI  20
MANISTEE       CLOUDY    34  28  80 S14G37    29.67F WCI  24
OSCODA         FLURRIES  40  21  47 SW31G44   29.72F WCI  28
PELLSTON       SNOW      32  31  96 S12G20    29.63F VSB 1/2 WCI  23
ROGERS CITY    LGT SNOW  33  30  91 SW9G20    29.67F VSB 1   WCI  25
TRAVERSE CITY  LGT SNOW  34  29  82 S8G24     29.62F BLWGSNOWWCI  27
$$
MIZ007>008-015-292200-
EASTERN UPPER MICHIGAN

CITY           SKY/WX    TMP DP  RH WIND       PRES   REMARKS
KINROSS        CLOUDY    34  32  93 S10       29.60F VSB 1   WCI  26
MACKINAC ISLAN SNOW      32  32 100 S13G21    29.61F VSB 1/2 WCI  22
NEWBERRY       SNOW      31  30  97 S29       29.53F VSB 1/4 WCI  16
S. S. MARIE    SNOW      32  30  92 S13G18    29.60F VSB 1/4 WCI  22
$$
MIZ004>006-011>014-085-292200-
CENTRAL UPPER MICHIGAN

CITY           SKY/WX    TMP DP  RH WIND       PRES   REMARKS
MANISTIQUE     LGT SNOW  32  32 100 S18G28    29.53F WCI  20
ESCANABA       CLOUDY    34  30  86 SW13G21   29.50F WCI  25
MENOMINEE      CLOUDY    34  30  86 SW14G20   29.51F WCI  24
SAWYER-GWINN   SNOW      32  30  93 SW16      29.44F VSB 1/2 WCI  21
$$
MIZ001>003-009>011-084-292200-
WESTERN UPPER MICHIGAN

CITY           SKY/WX    TMP DP  RH WIND       PRES   REMARKS
IRON MOUNTAIN  LGT SNOW  34  31  88 SW6       29.45S FOG     WCI  29
HOUGHTON       LGT SNOW  34  31  88 W23G32    29.40R FOG     WCI  22
COPPER HARBOR    N/A     33  32  96 CALM      29.39F
IRONWOOD       CLOUDY    34  34 100 W16G24    29.51R WCI  23
$$

ABBREVIATIONS USED IN REMARKS
   TC - TEMPERATURE IN CELSIUS
  WCI - WIND CHILL INDEX
   HX - HEAT INDEX
  VSB - VISIBILITY



USA.gov is the U.S. government's official web portal to all federal, state and local government web resources and services.